Theta_e
350 346 344 339 336 332 332 334 334 338 337 336 336 336 335 335 332 327 327 326 324 323 324 325 326 329 329 331 334 334 333 335 331 334 338 341 341 343 345 348 350 349 348
349 345 343 337 333 330 332 335 339 337 337 336 336 336 335 334 332 328 326 326 325 324 324 324 324 328 326 327 328 329 330 332 332 329 331 334 338 340 341 342 346 349 347
347 345 342 332 330 333 338 340 340 340 339 338 336 334 334 333 329 329 326 325 326 325 324 323 323 324 322 324 326 325 328 331 331 332 330 332 335 338 338 340 341 343 348
345 340 334 335 339 340 340 340 340 339 337 333 330 329 326 326 327 326 325 323 323 323 322 321 323 321 319 319 320 320 323 326 328 327 327 327 329 332 334 333 332 335 339
340 332 338 340 340 339 338 339 338 336 331 326 320 317 318 321 324 321 319 315 312 312 313 317 319 324 323 320 316 314 316 317 319 323 324 324 324 325 326 328 328 331 333
336 336 341 339 338 339 337 335 335 331 326 318 313 311 310 313 317 319 313 308 307 307 308 310 312 319 317 318 318 318 315 311 312 315 319 320 324 327 325 325 326 327 326
340 340 339 338 338 336 333 331 329 323 321 314 311 309 308 309 314 314 313 304 303 303 304 305 308 311 311 312 314 314 313 316 315 311 315 317 317 323 321 318 322 325 327
338 338 338 337 336 333 328 324 322 320 315 310 308 307 306 308 312 311 310 301 301 302 303 303 304 305 308 311 311 307 309 309 311 313 310 314 316 320 320 320 319 323 329
338 337 334 336 332 326 321 320 319 319 310 308 307 305 304 304 310 310 304 301 301 301 302 302 306 305 309 311 307 307 306 308 315 322 321 320 320 322 323 320 317 317 319
333 330 333 333 325 320 320 318 316 313 310 309 307 305 306 300 309 309 304 301 298 299 300 301 308 307 308 308 303 302 301 303 308 311 317 316 318 317 323 319 321 320 322
332 330 327 322 320 320 315 311 313 313 312 309 307 304 302 302 301 308 308 301 300 299 299 300 302 307 306 306 306 302 303 305 306 307 309 309 312 315 320 322 323 326 324
325 323 319 318 318 311 308 306 306 304 302 301 299 299 301 300 304 305 308 308 306 298 298 300 301 306 305 305 304 306 305 304 301 301 301 303 306 307 312 315 321 323 327
318 315 315 314 309 306 305 303 303 302 300 299 298 297 297 299 298 304 305 307 307 301 301 305 307 305 304 302 305 305 303 300 301 299 298 299 302 304 307 311 317 318 321
314 313 313 313 310 305 304 304 303 301 299 299 298 297 296 297 297 297 297 297 302 300 302 298 303 304 304 303 300 299 298 299 300 298 299 300 301 301 302 308 310 315 318
313 312 311 311 308 306 303 303 303 302 302 300 298 298 297 298 299 300 298 297 297 299 300 296 295 294 295 295 295 296 297 297 297 297 298 299 299 300 300 302 305 307 312
310 310 309 309 308 307 305 303 305 304 303 301 300 300 301 301 300 299 298 297 298 299 296 294 293 294 294 294 294 295 296 298 298 299 299 299 299 299 299 301 301 304 306
305 307 306 305 306 305 304 302 301 303 303 301 299 299 299 300 299 297 296 296 297 298 294 294 294 294 295 295 294 294 294 297 299 299 299 299 299 299 299 299 299 300 301
305 306 302 302 304 305 304 304 303 302 303 302 302 301 301 298 297 297 296 296 298 297 296 297 296 296 295 295 295 294 295 296 299 299 299 299 299 299 298 298 298 298 299
303 305 303 304 305 305 303 303 303 305 304 304 305 303 302 298 297 297 296 298 301 300 300 297 297 297 296 296 296 296 296 296 299 300 299 299 299 299 298 298 298 298 298
305 311 310 306 305 303 304 302 302 304 303 303 303 304 303 301 302 302 298 297 297 299 300 299 300 298 298 297 296 296 296 297 299 299 299 300 300 299 298 298 298 297 297
304 307 310 305 305 305 305 304 302 302 302 301 301 302 300 301 302 301 301 299 298 299 300 301 301 299 299 297 296 296 297 298 299 299 299 300 300 299 299 298 298 298 297
308 310 310 310 309 306 304 303 301 300 300 300 302 302 298 300 300 300 301 302 303 302 302 301 300 299 298 297 298 299 299 300 300 300 300 300 300 300 299 298 297 297 297
311 311 308 306 305 307 307 305 303 301 301 303 302 302 303 303 302 303 304 304 303 302 302 300 299 298 298 298 300 300 300 300 301 300 300 300 298 298 298 296 295 295 295
308 305 304 304 306 306 304 304 306 303 303 303 304 304 304 304 304 305 303 301 300 299 299 297 296 297 298 300 302 301 301 301 301 300 299 296 294 293 293 293 293 294 294
303 304 306 305 305 305 306 305 304 307 306 306 306 306 307 306 303 300 299 298 296 295 294 294 294 295 296 297 296 293 289 284 288 289 288 288 290 289 290 291 293 294 296
306 306 305 306 306 307 307 309 308 306 306 307 307 307 306 302 298 297 296 295 293 291 292 292 293 293 293 294 293 289 285 284 286 284 285 286 288 289 290 291 294 296 299
Wind_Speed
8 7 7 6 7 6 4 4 3 2 2 1 0 2 3 4 2 3 3 5 6 6 6 6 7 6 5 4 3 2 2 2 4 3 2 3 3 7 7 9 8 9 9
9 8 7 6 5 6 5 4 4 3 1 1 2 3 4 4 2 4 5 5 6 6 7 7 7 6 7 6 4 5 3 3 3 6 3 2 4 4 5 5 6 7 7
10 9 7 7 6 6 6 5 4 3 4 5 5 6 7 6 6 5 5 6 6 6 6 6 6 7 9 8 7 7 5 4 3 3 4 2 3 2 3 4 5 5 6
10 8 7 6 7 7 6 6 5 4 6 6 6 6 8 7 7 6 6 7 7 7 8 8 6 7 7 8 7 8 8 8 4 3 3 3 3 3 2 3 4 3 5
10 9 8 8 7 5 5 5 5 6 7 6 8 8 8 10 8 7 6 7 7 8 8 9 9 11 15 14 7 9 9 7 6 6 4 2 3 3 3 3 4 5 5
4 6 7 6 6 6 6 6 6 7 9 9 8 8 8 7 15 15 11 7 8 9 10 10 9 11 14 19 19 17 10 5 5 3 3 5 7 3 2 4 6 5 6
6 6 5 3 4 6 7 6 6 7 9 8 6 7 8 7 16 15 15 6 6 6 6 7 8 9 13 12 17 17 14 15 10 6 7 6 6 6 3 4 4 6 8
11 13 10 6 6 7 6 6 7 7 8 6 5 5 6 8 14 13 12 6 5 6 5 6 5 7 10 13 9 9 10 9 8 6 6 10 9 8 7 7 8 8 8
8 6 6 7 8 6 6 6 5 9 7 4 4 6 6 5 11 10 7 4 4 5 4 5 5 6 19 19 8 8 10 10 14 15 14 17 19 19 15 6 6 4 6
7 8 6 6 7 7 6 6 4 9 8 6 6 5 6 3 7 9 6 2 3 3 5 5 11 13 17 17 8 8 9 11 12 13 10 11 10 10 14 5 6 7 7
9 8 7 6 7 7 6 4 6 7 6 5 6 3 3 2 5 8 6 2 2 3 3 4 3 15 14 14 15 8 12 13 12 10 10 8 9 9 7 7 7 7 9
9 10 7 7 6 7 9 5 6 7 7 5 5 3 2 3 5 5 3 5 6 2 4 4 5 15 14 13 10 17 19 14 8 9 9 9 9 10 11 11 11 10 8
8 7 6 8 7 7 9 6 5 5 5 4 4 3 2 3 4 5 7 9 11 5 4 9 14 15 14 11 18 18 14 6 8 10 10 10 10 11 14 12 12 11 11
8 7 6 8 7 6 5 5 5 5 4 4 4 3 3 4 4 3 2 5 7 5 6 5 9 11 11 10 9 8 5 5 6 6 8 9 10 10 10 9 11 11 9
8 7 6 6 7 6 4 4 5 4 5 6 5 4 4 4 4 4 2 2 2 4 5 3 3 3 4 4 5 5 5 5 5 5 7 8 9 10 10 10 9 10 8
7 5 4 4 4 4 4 2 2 4 8 9 6 7 5 8 7 7 7 8 8 6 1 3 3 4 5 5 5 5 5 7 5 6 7 8 8 9 10 10 9 9 9
7 6 4 4 4 4 3 4 4 4 4 7 8 10 11 11 9 10 10 9 8 4 4 6 6 5 6 6 5 5 5 6 7 5 7 8 8 9 12 10 9 9 9
5 6 4 3 3 4 4 4 4 4 4 4 4 11 14 17 14 13 8 6 7 5 5 8 9 7 7 6 6 5 6 6 6 5 6 7 7 8 9 9 9 9 9
6 5 4 3 3 3 3 3 4 4 4 5 3 4 10 13 14 15 8 6 9 9 8 7 7 8 8 7 7 7 7 7 7 7 7 7 7 7 9 9 9 14 14
4 7 5 3 3 3 2 3 3 4 4 4 4 5 2 2 4 4 4 4 5 8 8 8 7 7 8 8 7 6 6 6 7 7 8 8 7 7 9 11 10 11 10
4 4 7 4 3 2 2 6 4 4 5 4 5 7 6 4 7 5 5 5 5 6 7 6 7 7 7 6 6 5 6 7 7 8 8 8 8 9 10 10 11 12 11
5 6 5 5 4 2 6 5 5 5 5 5 6 6 2 4 5 5 5 5 5 5 5 5 5 5 6 5 6 6 7 7 7 7 7 8 9 10 10 11 12 12 11
4 5 4 1 3 7 7 6 6 5 5 6 5 5 5 5 4 4 4 4 4 5 5 4 5 5 5 5 5 5 6 7 7 6 8 9 10 10 10 12 12 12 11
3 5 4 4 5 8 6 6 5 6 5 5 5 4 4 4 3 3 3 4 5 5 5 5 5 7 6 5 4 4 5 6 5 6 10 9 11 11 10 11 12 14 13
2 2 2 5 5 5 3 3 3 2 4 4 3 3 3 3 2 3 4 4 4 5 6 6 5 7 8 10 7 8 8 9 7 9 5 7 11 13 12 11 13 13 16
3 4 5 3 4 3 3 3 3 3 4 3 2 3 2 1 1 2 4 4 4 5 7 5 7 10 11 8 8 13 12 12 11 10 7 6 8 9 9 12 17 12 15
Wind_Direction
153 147 147 169 166 167 142 129 149 125 136 142 283 34 33 6 48 46 25 13 10 1 2 1 351 344 348 355 344 309 274 245 272 281 268 266 266 245 247 240 226 227 241
157 154 162 165 141 137 135 153 148 137 113 58 34 35 28 356 54 40 13 2 8 3 354 3 357 350 359 350 351 353 304 273 252 281 273 285 245 250 248 251 247 225 233
156 155 144 142 138 143 144 143 129 119 70 44 43 32 20 25 41 31 29 2 360 8 6 2 358 8 15 357 356 355 341 314 254 253 285 265 269 279 298 266 255 252 247
150 138 132 139 144 142 141 137 130 115 89 76 53 50 45 25 16 17 30 23 20 18 10 3 11 27 24 3 2 357 348 345 335 292 279 278 273 296 274 281 297 273 264
140 129 140 134 126 124 129 110 101 88 77 69 67 50 43 43 26 30 33 38 25 11 8 4 358 25 21 14 5 348 346 343 341 337 324 308 296 324 317 310 279 285 283
60 105 106 114 134 130 103 94 100 89 75 72 53 64 60 51 30 33 38 31 27 20 7 359 347 14 358 354 350 340 333 323 317 302 298 315 310 293 298 306 306 315 310
160 98 78 96 121 102 100 103 98 87 97 86 71 70 53 37 34 31 40 33 29 19 9 354 356 0 357 351 342 342 336 332 313 286 285 283 293 290 292 293 283 286 276
146 148 148 165 124 119 116 111 98 97 101 96 86 62 61 41 34 39 47 34 25 7 359 343 351 345 347 349 332 323 329 328 326 311 268 277 269 280 265 263 269 269 272
141 142 126 131 133 124 108 106 102 109 109 111 103 84 63 27 41 44 45 32 18 358 344 340 19 3 1 1 340 337 335 328 327 327 307 297 294 292 281 291 279 259 281
148 137 124 135 124 112 121 116 91 117 125 116 98 89 80 40 29 41 39 15 16 350 331 342 3 11 4 3 360 351 343 331 320 328 331 330 317 299 306 266 272 272 273
133 121 124 107 117 123 104 100 113 113 115 108 108 99 84 44 360 16 25 10 359 340 352 348 339 7 360 358 4 357 349 337 337 332 334 332 336 334 332 332 309 283 280
122 119 118 128 124 111 109 98 105 115 114 121 122 109 18 352 321 313 25 59 54 61 4 327 331 352 354 357 359 359 356 352 347 346 343 338 336 331 329 324 312 309 282
115 119 124 114 116 123 124 126 116 125 134 141 126 139 229 272 277 339 16 27 25 26 352 354 347 345 347 349 352 351 349 339 350 345 337 330 327 324 315 312 313 307 297
120 131 133 133 132 131 128 137 132 139 142 151 165 196 245 271 270 275 9 19 10 4 349 333 330 328 326 323 328 322 314 320 337 322 323 322 323 326 320 323 321 317 306
135 141 136 139 145 138 121 153 161 194 172 174 209 195 204 255 254 213 191 293 293 287 324 334 326 305 301 300 306 299 299 302 324 324 323 319 318 322 324 322 315 315 311
124 133 142 142 142 132 136 142 11 237 239 241 235 200 238 245 267 246 244 245 260 291 333 278 281 282 287 293 299 301 304 318 306 318 317 316 313 315 317 318 317 315 316
135 148 135 132 135 144 156 172 192 289 257 248 259 258 256 252 258 254 257 264 265 294 240 260 258 262 272 279 285 285 285 293 297 308 310 314 312 310 316 312 315 315 312
115 113 129 146 160 156 167 198 198 201 237 274 292 246 261 260 256 257 244 303 288 223 236 255 260 254 253 254 269 265 276 285 287 301 299 298 303 304 306 305 304 304 305
126 136 141 150 156 178 182 211 225 222 230 247 284 278 259 271 268 269 187 232 267 277 268 251 250 252 252 247 251 256 254 270 279 287 284 285 290 297 300 297 293 296 292
143 150 165 165 163 161 189 220 224 226 234 263 265 252 290 313 289 284 226 225 240 256 269 265 267 251 257 251 252 253 267 277 281 281 282 284 284 288 292 293 292 289 286
97 101 106 87 91 4 282 255 242 226 235 241 256 261 234 237 274 273 293 289 262 263 266 268 271 265 265 255 253 256 263 274 274 276 278 282 283 287 291 288 290 287 281
153 141 146 142 140 277 264 258 253 256 261 258 268 275 242 238 259 274 286 280 283 272 271 269 279 279 271 254 262 265 271 275 278 278 278 286 290 287 285 286 290 290 285
117 136 128 183 261 273 279 263 248 225 255 266 271 282 287 283 272 275 300 318 329 325 321 319 304 298 288 269 255 252 270 277 274 276 290 295 293 291 291 288 290 287 282
102 126 166 253 266 263 252 263 231 227 239 268 271 283 287 286 306 333 352 330 327 328 327 318 314 313 308 307 298 294 275 279 283 286 299 291 291 297 291 287 286 286 279
210 59 300 269 283 278 216 243 288 333 273 267 294 298 308 352 44 3 343 327 337 335 320 322 320 325 329 327 342 341 334 320 309 296 287 276 282 287 284 287 288 289 284
259 254 257 275 297 327 8 319 287 274 290 326 335 325 352 92 356 355 335 345 339 326 329 328 328 329 331 331 335 326 321 316 318 302 288 278 288 294 296 298 301 301 299